Mattoon, IL

3:04 AM CST on December 12, 2019 (GMT -0600)
Coles County Memorial

Weather History for KMTO - June, 2019

Change the Weather History Date:

Friday, June 14, 2019

  Actual Average Record
Temperature  
Mean Temperature 64 °F 72 °F  
Max Temperature 76 °F 82 °F 100 °F (1987)
Min Temperature 52 °F 62 °F 44 °F (1955)
Degree Days  
Heating Degree Days 1 0  
Month to date heating degree days 4 14  
Since 1 June heating degree days 4 14  
Since 1 July heating degree days 5521 5404  
Cooling Degree Days 0 7  
Month to date cooling degree days 79 80  
Year to date cooling degree days 204 168  
Since 1 June cooling degree days 79 80  
Growing Degree Days 14 (Base 50)    
Moisture  
Dew Point 45 °F    
Average Humidity 59    
Maximum Humidity 84    
Minimum Humidity 33    
Precipitation  
Precipitation 0.07 in 0.12 in 1.28 in (2017)
Month to date precipitation 0.16 2.22  
Year to date precipitation 11.79 16.57  
Sea Level Pressure  
Sea Level Pressure 30.06 in    
Wind  
Wind Speed 9 mph (SSW)    
Max Wind Speed 18 mph    
Max Gust Speed 28 mph    
Visibility 7 miles    
Events Rain    
T = Trace of Precipitation, MM = Missing Value Source: NWS Daily Summary

Daily Weather History Graph

Daily Weather History Graph

Search for Another Location

Airport or City:

Astronomy

Jun. 14, 2019 Rise Set
Actual Time 5:25 AM CDT 8:21 PM CDT
Civil Twilight 4:52 AM CDT 8:53 PM CDT
Nautical Twilight 4:12 AM CDT 9:34 PM CDT
Astronomical Twilight 3:24 AM CDT 10:22 PM CDT
Moon 5:43 PM CDT (6/14) 3:42 AM CDT (6/14)
Length of Visible Light 16h 01m
Length of Day
14h 56m
Waxing Gibbous, 92% of the Moon is Illuminated
Jun 14
Waxing Gibbous
Jun 17
Full
Jun 25
Last Quarter
Jul 2
New
Jul 9
First Quarter

Hourly Weather History & Observations

Time (CDT) Temp. Dew Point Humidity Pressure Visibility Wind Dir Wind Speed Gust Speed Precip Events Conditions
12:53 AM 55.0 °F 44.1 °F 67% 30.07 in 10.0 mi SW 4.6 mph - N/A   Clear
1:53 AM 57.9 °F 41.0 °F 53% 30.08 in 10.0 mi SW 6.9 mph - N/A   Clear
2:53 AM 55.9 °F 41.0 °F 57% 30.09 in 10.0 mi SW 8.1 mph - N/A   Clear
3:53 AM 55.9 °F 41.0 °F 57% 30.09 in 10.0 mi SW 5.8 mph - N/A   Clear
4:53 AM 55.9 °F 42.1 °F 60% 30.10 in 9.0 mi SSW 6.9 mph - N/A   Clear
5:53 AM 54.0 °F 43.0 °F 66% 30.11 in 7.0 mi SSW 5.8 mph - N/A   Clear
6:53 AM 57.0 °F 44.1 °F 62% 30.11 in 6.0 mi South 5.8 mph - N/A   Haze
7:53 AM 63.0 °F 46.9 °F 56% 30.12 in 4.0 mi South 5.8 mph - N/A   Haze
8:27 AM 64.9 °F 45.0 °F 48% 30.13 in 2.5 mi South 10.4 mph - N/A   Haze
8:53 AM 66.9 °F 46.0 °F 47% 30.12 in 2.5 mi South 11.5 mph - N/A   Haze
9:34 AM 69.1 °F 46.0 °F 44% 30.11 in 1.0 mi South 10.4 mph 21.9 mph N/A   Haze
9:42 AM 70.0 °F 46.0 °F 42% 30.11 in 0.8 mi SSW 11.5 mph - N/A   Haze
9:53 AM 70.0 °F 45.0 °F 41% 30.10 in 0.5 mi SSW 11.5 mph 21.9 mph N/A   Haze
10:16 AM 71.1 °F 44.1 °F 38% 30.11 in 0.2 mi SSW 12.7 mph 21.9 mph N/A   Haze
10:53 AM 72.0 °F 43.0 °F 35% 30.11 in 0.2 mi SSW 12.7 mph 21.9 mph N/A   Haze
11:12 AM 72.0 °F 42.1 °F 34% 30.11 in 0.5 mi SW 13.8 mph 26.5 mph N/A   Haze
11:15 AM 72.0 °F 42.1 °F 34% 30.11 in - SW 13.8 mph 26.5 mph N/A   Clear
11:53 AM 73.0 °F 43.0 °F 34% 30.09 in 10.0 mi SSW 10.4 mph 27.6 mph N/A   Clear
12:53 PM 73.9 °F 45.0 °F 35% 30.06 in 10.0 mi South 16.1 mph 28.8 mph N/A   Clear
1:53 PM 73.9 °F 44.1 °F 34% 30.03 in 10.0 mi SW 11.5 mph 23.0 mph N/A   Clear
2:53 PM 73.0 °F 46.0 °F 38% 30.00 in 10.0 mi South 10.4 mph 20.7 mph N/A   Clear
3:53 PM 73.9 °F 46.0 °F 37% 29.98 in 10.0 mi South 12.7 mph 20.7 mph N/A   Clear
4:53 PM 73.9 °F 45.0 °F 35% 29.97 in 10.0 mi South 13.8 mph 26.5 mph N/A   Clear
5:53 PM 73.0 °F 46.0 °F 38% 29.97 in 10.0 mi SSW 11.5 mph 20.7 mph N/A   Overcast
6:53 PM 68.0 °F 52.0 °F 56% 29.97 in 10.0 mi South 6.9 mph 21.9 mph 0.00 in Rain Light Rain
7:53 PM 68.0 °F 53.1 °F 59% 29.94 in 10.0 mi SSE 9.2 mph - 0.00 in   Overcast
8:53 PM 66.9 °F 53.1 °F 61% 29.94 in 10.0 mi South 8.1 mph - 0.00 in Rain Light Rain